Terminal Aerodrome Forecast
Issued by NWS

Home | Current Version | Previous Version | Graphics & Text | Print | Product List | Glossary On
Versions: 1 2 3 4 5 6 7 8 9 10 11 12 13 14 15 16 17 18 19 20 21 22 23 24 25 26 27 28
000
FTUS43 KICT 140650 AAA
TAFCNU
TAF AMD
KCNU 140650Z 1407/1506 14005KT 5SM BR BKN004
     FM140900 15004KT 3SM BR BKN003
     FM141200 15004KT 5SM BR BKN005
     FM141400 15005KT P6SM BKN015
     FM141700 16007KT P6SM SCT035=

USA.gov is the U.S. government's official web portal to all federal, state and local government web resources and services.